Location: Unspecified
(29.9680°N, 0.0000°E)
Time: 21:05:39
(UTC+00:00)

A-11 Canister half - Pass Details

Date: 25 June 2019
Orbit: 1526 x 1683 km, 47.3° (Epoch: 15 July)

Event Time Altitude Azimuth Distance (km) Brightness Sun altitude
Rises 05:47:14 0° 283° (WNW) 4,737 11.1 8.3°
Reaches altitude 10° 05:51:00 10° 295° (WNW) 3,733 10.7 9.1°
Maximum altitude 05:58:44 28° 351° (N) 2,575 10.5 10.7°
Drops below altitude 10° 06:06:25 10° 47° (NE) 3,693 12.5 12.2°
Sets 06:10:07 0° 59° (ENE) 4,678 13.4 13.0°
